When you browse on this site, cookies collect data to enhance your experience and personalize the content and advertising you see.
Visit our Privacy Policy to learn more. By continuing to use the site, you agree to this use of cookies and data.
  • In Deutschland
  • Länderverzeichnis
  • Für 7 Tage
  • Wassertemperatur
  • Satellitenkarten
  • Wetterkarte
  • Widgets
  • user-avatar
    Anmelden

    Stündliche Wetter Ust-Barguzin

    Heute, 20 November, Dienstag

    Zeit Temperatur Niederschläge Wind Luftdruck Luftfeuchtigkeit
    00:00 -15°C° 0.1 mm 4 m/S 725 mmHg 90%
    01:00 -15°C° 0 mm 5 m/S 724 mmHg 89%
    02:00 -15°C° 0.1 mm 5 m/S 724 mmHg 89%
    03:00 -15°C° 0.1 mm 5 m/S 724 mmHg 88%
    04:00 -15°C° 0.1 mm 6 m/S 724 mmHg 87%
    05:00 -15°C° 0.1 mm 6 m/S 723 mmHg 88%
    06:00 -15°C° 0.1 mm 6 m/S 723 mmHg 88%
    07:00 -14°C° 0 mm 7 m/S 722 mmHg 88%
    08:00 -14°C° 0.2 mm 7 m/S 722 mmHg 86%
    09:00 -14°C° 0.2 mm 7 m/S 722 mmHg 85%
    10:00 -14°C° 0.2 mm 7 m/S 722 mmHg 84%
    11:00 -14°C° 0.1 mm 7 m/S 722 mmHg 82%
    12:00 -15°C° 0.1 mm 7 m/S 722 mmHg 80%
    13:00 -15°C° 0.1 mm 7 m/S 722 mmHg 78%
    14:00 -17°C° 0.1 mm 7 m/S 723 mmHg 78%
    15:00 -17°C° 0.1 mm 7 m/S 723 mmHg 79%
    16:00 -17°C° 0.1 mm 6 m/S 724 mmHg 80%
    17:00 -18°C° 0 mm 6 m/S 724 mmHg 82%
    18:00 -18°C° 0 mm 5 m/S 724 mmHg 83%
    19:00 -19°C° 0 mm 5 m/S 725 mmHg 85%
    20:00 -18°C° 0 mm 4 m/S 725 mmHg 86%
    21:00 -18°C° 0 mm 4 m/S 725 mmHg 88%
    22:00 -19°C° 0 mm 4 m/S 725 mmHg 89%
    23:00 -18°C° 0 mm 3 m/S 725 mmHg 89%

    Morgen, 21 November, Mittwoch

    Zeit Temperatur Niederschläge Wind Luftdruck Luftfeuchtigkeit
    00:00 -18°C° 0 mm 3 m/S 725 mmHg 90%
    01:00 -18°C° 0 mm 3 m/S 726 mmHg 91%
    02:00 -18°C° 0 mm 3 m/S 725 mmHg 91%
    03:00 -18°C° 0 mm 3 m/S 725 mmHg 91%
    04:00 -18°C° 0 mm 3 m/S 725 mmHg 92%
    05:00 -17°C° 0 mm 2 m/S 726 mmHg 92%
    06:00 -17°C° 0 mm 2 m/S 726 mmHg 93%
    07:00 -17°C° 0 mm 2 m/S 726 mmHg 93%
    08:00 -16°C° 0 mm 2 m/S 726 mmHg 89%
    09:00 -15°C° 0 mm 2 m/S 726 mmHg 84%
    10:00 -13°C° 0 mm 2 m/S 727 mmHg 80%
    11:00 -13°C° 0 mm 2 m/S 726 mmHg 78%
    12:00 -12°C° 0 mm 2 m/S 726 mmHg 77%
    13:00 -12°C° 0 mm 2 m/S 726 mmHg 76%
    14:00 -13°C° 0 mm 2 m/S 726 mmHg 80%
    15:00 -12°C° 0 mm 1 m/S 726 mmHg 84%
    16:00 -13°C° 0 mm 1 m/S 726 mmHg 88%
    17:00 -14°C° 0 mm 1 m/S 726 mmHg 89%
    18:00 -14°C° 0 mm 1 m/S 726 mmHg 89%
    19:00 -15°C° 0 mm 1 m/S 726 mmHg 90%
    20:00 -16°C° 0 mm 2 m/S 726 mmHg 90%
    21:00 -16°C° 0 mm 2 m/S 726 mmHg 89%
    22:00 -16°C° 0 mm 2 m/S 726 mmHg 89%
    23:00 -16°C° 0 mm 2 m/S 726 mmHg 89%

    übermorgen, 22 November, Donnerstag

    Zeit Temperatur Niederschläge Wind Luftdruck Luftfeuchtigkeit
    00:00 -16°C° 0 mm 2 m/S 725 mmHg 88%
    01:00 -16°C° 0 mm 2 m/S 725 mmHg 88%
    02:00 -15°C° 0 mm 2 m/S 725 mmHg 88%
    03:00 -16°C° 0 mm 3 m/S 725 mmHg 87%
    04:00 -16°C° 0 mm 3 m/S 724 mmHg 87%
    05:00 -16°C° 0 mm 3 m/S 724 mmHg 87%
    06:00 -15°C° 0 mm 3 m/S 724 mmHg 87%
    07:00 -15°C° 0 mm 3 m/S 724 mmHg 88%
    08:00 -13°C° 0 mm 3 m/S 724 mmHg 86%
    09:00 -10°C° 0 mm 3 m/S 724 mmHg 84%
    10:00 -9°C° 0 mm 3 m/S 724 mmHg 82%
    11:00 -8°C° 0 mm 3 m/S 723 mmHg 82%
    12:00 -7°C° 0 mm 3 m/S 723 mmHg 81%
    13:00 -7°C° 0 mm 4 m/S 722 mmHg 81%
    14:00 -7°C° 0 mm 3 m/S 722 mmHg 84%
    15:00 -8°C° 0 mm 3 m/S 722 mmHg 87%
    16:00 -8°C° 0 mm 3 m/S 722 mmHg 90%
    17:00 -9°C° 0 mm 3 m/S 722 mmHg 90%
    18:00 -8°C° 0 mm 2 m/S 722 mmHg 90%
    19:00 -9°C° 0 mm 2 m/S 722 mmHg 90%
    20:00 -9°C° 0 mm 2 m/S 722 mmHg 90%
    21:00 -9°C° 0 mm 2 m/S 722 mmHg 90%
    22:00 -9°C° 0 mm 2 m/S 722 mmHg 90%
    23:00 -9°C° 0 mm 2 m/S 722 mmHg 90%

    23 November, Freitag

    Zeit Temperatur Niederschläge Wind Luftdruck Luftfeuchtigkeit
    00:00 -9°C° 0 mm 2 m/S 722 mmHg 90%
    01:00 -10°C° 0 mm 2 m/S 721 mmHg 90%
    02:00 -9°C° 0 mm 2 m/S 721 mmHg 90%
    03:00 -9°C° 0 mm 2 m/S 721 mmHg 90%
    04:00 -9°C° 0 mm 2 m/S 721 mmHg 90%
    05:00 -9°C° 0 mm 2 m/S 721 mmHg 90%
    06:00 -9°C° 0 mm 2 m/S 721 mmHg 91%
    07:00 -9°C° 0 mm 2 m/S 722 mmHg 91%
    08:00 -7°C° 0 mm 2 m/S 722 mmHg 89%
    09:00 -6°C° 0 mm 2 m/S 722 mmHg 86%
    10:00 -5°C° 0 mm 2 m/S 722 mmHg 84%
    11:00 -4°C° 0 mm 2 m/S 721 mmHg 82%
    12:00 -4°C° 0 mm 2 m/S 721 mmHg 80%
    13:00 -3°C° 0 mm 2 m/S 721 mmHg 78%
    14:00 -4°C° 0 mm 2 m/S 721 mmHg 82%
    15:00 -6°C° 0 mm 2 m/S 721 mmHg 85%
    16:00 -7°C° 0 mm 2 m/S 721 mmHg 89%
    17:00 -8°C° 0 mm 2 m/S 721 mmHg 89%
    18:00 -8°C° 0 mm 2 m/S 721 mmHg 89%
    19:00 -9°C° 0 mm 2 m/S 721 mmHg 88%
    20:00 -9°C° 0 mm 2 m/S 721 mmHg 87%
    21:00 -9°C° 0 mm 2 m/S 721 mmHg 86%
    22:00 -10°C° 0 mm 2 m/S 721 mmHg 85%
    23:00 -10°C° 0 mm 2 m/S 721 mmHg 85%

    24 November, Samstag

    Zeit Temperatur Niederschläge Wind Luftdruck Luftfeuchtigkeit
    00:00 -10°C° 0 mm 2 m/S 721 mmHg 84%
    01:00 -10°C° 0 mm 2 m/S 721 mmHg 83%
    02:00 -10°C° 0 mm 2 m/S 721 mmHg 83%
    03:00 -10°C° 0 mm 2 m/S 721 mmHg 82%
    04:00 -10°C° 0 mm 2 m/S 721 mmHg 81%
    05:00 -10°C° 0 mm 2 m/S 721 mmHg 80%
    06:00 -12°C° 0 mm 3 m/S 721 mmHg 79%
    07:00 -12°C° 0 mm 3 m/S 721 mmHg 78%
    08:00 -9°C° 0 mm 3 m/S 721 mmHg 76%
    09:00 -8°C° 0 mm 3 m/S 721 mmHg 74%
    10:00 -6°C° 0 mm 3 m/S 721 mmHg 71%
    11:00 -4°C° 0 mm 2 m/S 721 mmHg 71%
    12:00 -3°C° 0 mm 2 m/S 721 mmHg 71%
    13:00 -2°C° 0 mm 2 m/S 720 mmHg 70%
    14:00 -3°C° 0 mm 2 m/S 720 mmHg 74%
    15:00 -5°C° 0 mm 2 m/S 720 mmHg 77%
    16:00 -6°C° 0 mm 2 m/S 720 mmHg 80%
    17:00 -6°C° 0 mm 2 m/S 720 mmHg 80%
    18:00 -6°C° 0 mm 2 m/S 719 mmHg 80%
    19:00 -7°C° 0 mm 2 m/S 719 mmHg 80%
    20:00 -7°C° 0 mm 2 m/S 718 mmHg 80%
    21:00 -8°C° 0 mm 2 m/S 718 mmHg 80%
    22:00 -8°C° 0 mm 2 m/S 717 mmHg 81%
    23:00 -9°C° 0 mm 2 m/S 717 mmHg 80%

    25 November, Sonntag

    Zeit Temperatur Niederschläge Wind Luftdruck Luftfeuchtigkeit
    00:00 -9°C° 0 mm 2 m/S 716 mmHg 80%
    01:00 -9°C° 0 mm 2 m/S 715 mmHg 80%
    02:00 -10°C° 0 mm 3 m/S 714 mmHg 79%
    03:00 -10°C° 0 mm 3 m/S 714 mmHg 79%
    04:00 -10°C° 0 mm 3 m/S 713 mmHg 79%
    05:00 -10°C° 0 mm 3 m/S 712 mmHg 78%
    06:00 -9°C° 0 mm 3 m/S 710 mmHg 77%
    07:00 -9°C° 0 mm 3 m/S 709 mmHg 77%
    08:00 -8°C° 0 mm 3 m/S 709 mmHg 75%
    09:00 -5°C° 0 mm 2 m/S 708 mmHg 74%
    10:00 -4°C° 0 mm 2 m/S 707 mmHg 72%
    11:00 -3°C° 0.1 mm 2 m/S 707 mmHg 74%
    12:00 -4°C° 0.1 mm 3 m/S 706 mmHg 76%
    13:00 -2°C° 0.1 mm 3 m/S 706 mmHg 78%
    14:00 -4°C° 0.2 mm 4 m/S 707 mmHg 83%
    15:00 -5°C° 0.2 mm 5 m/S 708 mmHg 87%
    16:00 -5°C° 0.2 mm 5 m/S 708 mmHg 92%
    17:00 -7°C° 0.4 mm 7 m/S 709 mmHg 90%
    18:00 -8°C° 0.4 mm 8 m/S 710 mmHg 88%
    19:00 -10°C° 0.4 mm 9 m/S 711 mmHg 86%
    20:00 -10°C° 0.1 mm 9 m/S 711 mmHg 79%
    21:00 -11°C° 0.1 mm 9 m/S 712 mmHg 71%
    22:00 -12°C° 0.1 mm 8 m/S 713 mmHg 63%
    23:00 -13°C° 0 mm 8 m/S 713 mmHg 67%
    Mehr zeigen